Theta_e
323 322 318 314 313 313 311 310 307 304 306 313 311 320 316 316 316 315 316 315 315 314 311 309 308 307 307 307 308 308 308 309 311 311 312 313 313 315
316 317 317 314 313 312 312 312 312 309 305 310 311 317 317 314 316 316 313 315 314 314 312 308 308 307 306 307 307 307 308 308 309 309 309 310 311 312
314 313 312 315 312 312 312 312 311 309 306 308 311 315 318 317 315 314 313 313 313 313 311 311 309 308 307 307 307 307 307 307 308 307 308 308 309 310
309 310 309 310 312 312 311 311 311 311 308 307 311 311 316 319 316 315 310 310 310 311 310 313 310 309 308 308 307 307 306 307 307 305 306 307 307 308
309 308 307 308 306 307 308 308 309 309 310 308 308 311 312 313 311 312 309 310 309 311 310 308 307 308 310 310 308 307 306 306 304 304 305 305 306 307
306 304 303 302 302 303 304 305 307 306 308 307 307 307 308 311 308 303 302 305 304 306 308 306 307 309 309 309 310 308 306 305 304 303 303 303 303 304
305 303 302 301 301 299 302 303 304 304 304 304 303 304 304 301 299 300 298 299 300 304 301 301 302 301 304 305 308 305 305 305 304 303 303 302 301 302
304 304 303 300 302 303 301 300 300 303 303 301 301 299 300 298 298 296 294 292 290 301 295 297 303 301 301 301 303 303 304 304 303 302 302 302 301 301
305 302 300 300 299 302 303 306 304 300 299 303 300 299 297 299 297 295 293 292 291 294 295 293 303 300 302 301 304 304 303 302 302 302 302 302 301 300
300 301 301 298 295 296 302 303 305 306 306 304 305 304 303 300 297 295 294 293 293 295 296 290 297 296 300 303 305 303 302 301 302 302 302 302 301 299
296 296 298 295 291 292 300 300 301 301 304 302 300 298 296 295 296 295 292 289 288 290 295 291 294 292 297 301 304 303 302 302 301 301 302 301 300 300
301 296 291 292 291 291 298 298 297 298 301 304 307 305 301 301 298 295 292 288 288 288 294 291 292 291 289 298 299 303 304 305 303 302 302 302 301 305
298 296 294 291 290 290 291 297 296 295 301 303 304 304 302 300 297 297 296 292 290 289 294 294 292 291 291 291 295 300 304 306 307 307 304 302 301 301
297 295 295 290 290 291 294 291 292 296 300 301 302 300 299 299 296 296 297 299 296 293 296 296 293 292 292 291 292 299 304 306 306 304 305 304 303 301
296 291 291 292 292 295 293 293 296 299 298 299 300 298 298 299 297 299 297 298 297 299 297 297 296 295 295 294 294 299 299 304 305 304 304 304 303 302
292 298 297 294 293 295 299 299 299 299 298 298 299 298 298 297 295 296 293 295 294 295 297 297 296 296 295 297 299 298 299 299 302 303 303 304 302 301
293 300 299 298 298 298 298 299 298 298 297 298 299 296 293 294 293 295 294 294 292 291 292 295 296 297 300 300 298 298 297 298 300 301 302 302 302 301
297 297 296 296 296 296 296 297 297 297 297 298 298 295 293 293 293 294 294 293 291 291 291 293 294 293 294 300 300 297 298 297 298 300 301 301 301 301
296 295 295 295 295 296 296 296 295 296 298 297 297 295 295 295 294 293 293 292 291 291 291 293 292 291 288 289 297 300 297 298 297 297 299 300 301 304
295 294 294 295 296 295 296 296 296 296 296 296 296 295 296 295 294 293 293 292 291 290 290 292 292 290 289 290 292 299 295 298 297 295 296 299 304 301
295 294 295 295 295 296 296 296 296 295 296 296 296 294 297 296 295 294 294 290 290 289 288 289 291 288 295 297 294 296 299 298 298 297 296 296 299 301
294 294 295 295 295 295 296 295 294 295 295 295 295 296 298 296 295 295 295 292 290 289 290 291 292 293 294 293 292 295 296 300 302 299 298 296 294 294
294 294 294 295 295 295 295 294 293 294 295 297 298 298 298 296 296 296 295 294 291 290 290 289 290 292 292 292 291 294 294 296 300 301 302 298 298 298
Wind_Speed
7 5 6 6 5 6 6 7 7 8 9 8 9 11 10 10 13 14 12 17 21 18 7 10 14 17 19 19 20 19 17 17 19 19 20 20 20 18
6 7 6 6 5 5 5 5 7 8 9 10 11 10 9 9 12 13 16 16 16 7 5 8 12 14 16 17 18 18 17 17 18 19 19 19 19 19
8 6 7 7 7 7 7 7 7 7 9 10 9 11 10 9 10 12 13 12 10 16 14 15 12 13 15 14 15 15 15 15 17 18 19 20 20 20
11 8 8 6 7 8 7 7 7 8 8 12 10 10 9 8 11 12 11 12 12 16 22 13 13 15 14 14 14 14 14 14 15 18 19 21 21 21
10 6 9 9 8 8 8 8 8 8 8 9 10 10 10 11 12 11 13 13 12 22 16 22 24 24 18 15 16 12 14 13 13 16 18 20 22 23
9 9 7 9 9 8 7 8 9 9 9 9 10 11 11 13 12 13 14 13 14 16 13 18 20 21 17 20 13 11 13 13 14 18 19 21 21 22
7 6 8 8 8 3 6 7 8 9 9 10 10 11 12 13 13 12 12 14 15 11 14 13 11 9 11 17 16 22 20 18 18 19 20 21 21 20
7 4 6 10 8 3 8 7 4 7 10 8 10 12 13 13 12 12 12 11 9 7 14 14 12 8 9 10 21 23 18 17 20 19 21 22 21 21
5 6 6 9 11 9 13 5 10 9 3 8 11 12 11 10 10 13 13 11 11 12 11 11 10 14 10 13 16 11 14 16 18 18 21 22 21 20
8 7 8 9 12 12 10 9 10 8 6 7 7 8 9 10 9 10 10 12 11 9 8 6 11 13 14 11 11 17 15 17 20 16 18 19 18 19
11 11 8 10 12 15 11 12 11 10 4 11 11 7 5 7 6 7 9 9 9 9 3 5 7 10 12 10 11 20 20 18 17 14 19 18 16 17
10 9 11 8 11 13 12 12 11 12 12 13 11 4 3 5 8 7 7 8 9 6 3 8 7 6 8 7 14 14 12 20 13 17 18 17 16 8
6 7 6 4 8 10 12 10 11 12 13 11 10 11 10 10 11 9 7 6 6 6 8 6 5 5 3 8 9 12 13 13 7 11 16 16 16 12
8 6 3 7 8 8 8 11 14 12 10 10 11 12 10 12 10 10 12 10 5 8 10 8 5 7 7 8 7 11 12 11 9 11 11 13 13 15
6 3 6 10 10 5 13 13 10 11 11 11 12 11 11 10 12 13 12 13 11 5 8 10 8 10 7 6 8 11 12 11 9 11 11 10 10 9
8 4 2 4 6 7 9 10 11 11 11 12 12 12 12 11 10 11 12 11 10 11 12 11 12 10 7 7 7 10 11 8 12 10 11 8 9 9
8 7 9 9 9 10 10 11 11 11 12 12 13 12 12 10 12 11 11 9 10 11 11 13 13 12 9 6 6 10 10 8 10 10 8 8 9 9
6 8 9 9 10 10 10 11 11 13 13 12 12 11 11 10 11 11 10 10 10 10 10 11 11 11 7 1 5 8 10 10 9 9 8 5 9 10
10 9 9 10 9 10 10 10 11 12 14 12 12 11 10 10 12 11 11 11 12 11 11 10 9 9 9 8 5 5 9 10 10 9 7 5 5 7
10 9 10 9 10 10 10 10 11 12 12 12 11 11 10 10 11 11 11 13 12 11 11 10 10 10 7 6 6 7 9 8 9 8 6 5 4 7
9 9 9 9 10 9 10 10 12 12 11 12 11 10 10 10 10 11 11 13 14 11 12 11 10 11 7 7 6 7 9 8 9 10 8 4 5 6
9 9 9 9 9 10 10 11 11 12 12 11 10 10 9 10 10 11 12 11 12 11 10 9 11 9 8 7 8 9 9 8 5 7 15 12 3 5
9 9 9 9 10 10 11 11 12 11 11 10 10 11 10 11 10 11 11 9 10 12 12 11 10 8 9 7 7 7 11 10 8 7 7 10 12 9
Wind_Direction
74 40 48 42 29 20 357 345 339 322 332 344 340 10 3 342 331 337 329 331 306 296 280 306 319 318 319 321 326 328 326 321 327 334 331 323 318 316
67 52 16 29 24 24 351 343 331 331 319 338 347 351 350 327 336 340 329 312 314 326 300 317 304 308 314 316 317 321 328 330 334 330 323 317 311 308
65 45 53 38 12 12 350 4 333 355 316 336 320 337 313 342 340 341 328 330 336 336 335 310 286 285 289 301 305 308 311 316 321 323 323 315 306 300
66 39 41 38 11 18 345 357 350 330 325 321 337 318 345 333 354 328 352 338 336 347 318 321 297 281 273 275 279 287 290 294 304 315 315 311 307 301
71 46 39 25 30 14 353 350 353 343 329 328 320 334 335 14 336 350 341 339 336 339 352 343 330 312 294 282 265 271 287 288 300 313 313 310 306 302
63 55 41 45 28 10 0 0 5 347 339 341 335 344 347 5 345 352 338 340 339 332 343 339 327 342 340 346 318 321 317 307 311 313 311 308 305 298
84 98 60 36 31 346 347 16 8 360 356 350 342 345 343 347 348 343 335 334 335 323 343 328 321 319 328 332 319 338 324 320 313 314 308 305 305 296
80 71 91 40 8 289 256 245 276 8 10 355 346 344 338 339 341 336 336 337 328 331 327 317 313 328 328 319 316 307 307 308 309 311 309 310 304 298
69 35 33 40 7 349 333 326 211 212 262 338 348 338 329 338 330 332 337 325 312 310 317 312 327 331 337 323 315 314 309 316 318 303 306 311 307 301
63 53 45 27 11 346 318 11 7 27 12 334 330 339 345 350 334 323 316 321 303 310 335 283 332 328 329 322 345 340 324 322 310 312 316 318 313 314
74 45 40 35 352 341 24 16 12 12 299 249 245 255 282 297 305 324 333 333 321 323 356 311 334 320 328 321 350 329 327 316 312 317 324 318 326 328
129 106 64 27 325 351 19 17 12 356 329 336 2 67 197 39 35 4 330 324 326 316 352 325 335 354 323 311 329 328 326 325 325 323 323 332 346 341
98 77 57 310 324 325 340 18 332 318 311 1 5 20 14 7 3 345 337 309 315 297 295 322 309 322 274 304 305 313 327 319 331 332 335 335 343 347
77 72 79 266 283 308 347 320 308 320 359 7 14 16 11 354 359 329 347 330 315 289 305 323 296 314 304 302 300 320 330 327 353 337 338 337 347 348
94 144 251 280 271 268 244 278 339 10 359 12 19 21 6 358 348 341 351 345 341 351 333 340 333 322 311 283 300 326 326 329 345 340 341 348 355 356
198 180 65 318 275 288 21 23 28 9 4 13 22 26 358 349 350 349 344 345 349 345 350 355 342 333 318 309 320 334 337 336 332 343 340 350 10 13
307 56 48 38 35 30 25 24 28 5 13 14 26 13 358 345 352 355 345 347 356 345 345 349 347 337 325 315 330 346 338 337 338 333 340 1 20 17
74 53 48 38 36 26 20 23 20 11 16 12 27 7 352 351 347 353 350 356 353 347 349 349 345 347 352 329 39 341 354 347 339 339 352 2 24 14
61 56 45 39 31 27 20 20 17 20 17 8 27 359 353 350 355 354 351 355 353 352 351 345 352 353 352 345 304 20 349 350 344 353 347 349 343 356
57 51 50 38 32 27 15 19 26 26 16 9 22 353 352 355 357 357 355 358 354 351 349 352 356 352 343 323 315 317 353 1 6 348 340 323 316 324
59 54 46 42 34 27 14 19 31 33 17 12 11 346 352 357 2 360 356 4 357 356 351 350 341 319 318 317 337 340 346 25 39 17 343 340 355 360
56 55 51 43 36 25 19 20 27 28 22 15 353 345 3 356 4 3 358 12 2 352 349 341 345 350 359 2 345 343 351 344 357 61 47 41 353 14
53 52 48 43 35 29 23 20 21 22 22 359 353 349 8 2 7 8 358 22 10 357 359 351 353 360 7 358 343 351 352 356 349 357 27 57 51 59